TimeAKDT,TemperatureF,Dew PointF,Humidity,Sea Level PressureIn,VisibilityMPH,Wind Direction,Wind SpeedMPH,Gust SpeedMPH,PrecipitationIn,Events,Conditions,WindDirDegrees,DateUTC
12:49 AM,26.6,19.4,74,29.46,1.8,NNE,25.3,38.0,0.00,Snow,Light Snow,20,2013-03-25 08:49:00
12:53 AM,27.0,19.9,75,29.47,1.8,NNE,31.1,40.3,0.00,Snow,Light Snow,20,2013-03-25 08:53:00
1:07 AM,26.6,19.4,74,29.46,2.5,NNE,23.0,36.8,0.00,Snow,Light Snow,20,2013-03-25 09:07:00
1:18 AM,26.6,19.4,74,29.45,1.8,NNE,24.2,38.0,0.00,Snow,Light Snow,20,2013-03-25 09:18:00
1:30 AM,26.6,19.4,74,29.45,2.0,NNE,23.0,35.7,0.00,Snow,Light Snow,20,2013-03-25 09:30:00
1:38 AM,28.4,19.4,69,29.44,1.5,North,28.8,38.0,0.00,Snow,Light Snow,10,2013-03-25 09:38:00
1:53 AM,28.0,19.9,72,29.44,1.5,North,29.9,39.1,0.00,Snow,Light Snow,10,2013-03-25 09:53:00
2:09 AM,28.4,19.4,69,29.44,2.0,North,26.5,38.0,0.00,Snow,Light Snow,10,2013-03-25 10:09:00
2:22 AM,28.4,19.4,69,29.43,1.8,North,27.6,42.6,0.00,Snow,Light Snow,10,2013-03-25 10:22:00
2:53 AM,28.0,19.9,72,29.42,1.2,North,27.6,43.7,0.00,Snow,Light Snow,10,2013-03-25 10:53:00
3:31 AM,28.4,19.4,69,29.42,1.5,North,29.9,39.1,0.00,Snow,Light Snow,360,2013-03-25 11:31:00
3:50 AM,28.4,19.4,69,29.42,1.0,North,28.8,41.4,0.00,Snow,Light Snow,360,2013-03-25 11:50:00
3:53 AM,28.0,19.9,72,29.42,0.8,North,28.8,39.1,0.00,Snow,Light Snow,360,2013-03-25 11:53:00
4:00 AM,28.4,19.4,69,29.42,1.0,North,28.8,36.8,0.00,Snow,Light Snow,350,2013-03-25 12:00:00
4:18 AM,28.4,19.4,69,29.41,1.2,North,29.9,40.3,0.00,Snow,Light Snow,360,2013-03-25 12:18:00
4:53 AM,28.0,19.9,72,29.41,1.5,North,31.1,44.9,0.00,Snow,Light Snow,350,2013-03-25 12:53:00
5:15 AM,26.6,19.4,74,29.41,1.0,NNW,26.5,39.1,0.00,Snow,Light Snow,340,2013-03-25 13:15:00
5:24 AM,28.4,19.4,69,29.40,0.8,NNW,28.8,39.1,0.00,Snow,Light Snow,330,2013-03-25 13:24:00
5:34 AM,28.4,19.4,69,29.40,1.0,North,25.3,34.5,0.00,Snow,Light Snow,350,2013-03-25 13:34:00
5:43 AM,28.4,19.4,69,29.40,1.2,NNW,24.2,36.8,0.00,Snow,Light Snow,340,2013-03-25 13:43:00
5:53 AM,28.0,19.9,72,29.40,1.0,NNW,25.3,36.8,0.00,Snow,Light Snow,340,2013-03-25 13:53:00
6:08 AM,26.6,19.4,74,29.40,1.0,NNW,21.9,32.2,0.00,Snow,Light Snow,330,2013-03-25 14:08:00
6:28 AM,28.4,19.4,69,29.39,1.2,NNW,23.0,32.2,0.00,Snow,Light Snow,330,2013-03-25 14:28:00
6:53 AM,27.0,19.9,75,29.38,1.5,North,18.4,28.8,0.00,Snow,Light Snow,360,2013-03-25 14:53:00
7:28 AM,26.6,19.4,74,29.37,2.0,North,21.9,32.2,0.00,Snow,Light Snow,350,2013-03-25 15:28:00
7:34 AM,26.6,19.4,74,29.37,1.8,North,19.6,32.2,0.00,Snow,Light Snow,360,2013-03-25 15:34:00
7:53 AM,27.0,19.9,75,29.37,1.2,North,19.6,34.5,0.00,Snow,Light Snow,350,2013-03-25 15:53:00
7:56 AM,26.6,21.2,80,29.37,1.0,North,19.6,26.5,0.00,Snow,Light Snow,360,2013-03-25 15:56:00
8:24 AM,26.6,19.4,74,29.36,0.8,NNW,20.7,27.6,0.00,Snow,Light Snow,340,2013-03-25 16:24:00
8:53 AM,27.0,19.9,75,29.35,0.8,North,19.6,27.6,0.00,Snow,Light Snow,350,2013-03-25 16:53:00
9:53 AM,26.1,19.0,75,29.34,0.8,NNW,21.9,28.8,0.00,Snow,Light Snow,340,2013-03-25 17:53:00
10:27 AM,26.6,17.6,69,29.32,1.2,North,18.4,25.3,0.00,Snow,Light Snow,350,2013-03-25 18:27:00
10:43 AM,26.6,17.6,69,29.32,3.0,North,17.3,23.0,0.00,Snow,Light Snow,360,2013-03-25 18:43:00
10:53 AM,26.1,16.0,66,29.32,2.5,North,18.4,28.8,0.00,Snow,Light Snow,360,2013-03-25 18:53:00
10:59 AM,26.6,17.6,69,29.32,1.8,North,19.6,28.8,0.00,Snow,Light Snow,350,2013-03-25 18:59:00
11:11 AM,26.6,15.8,64,29.32,1.5,NNW,21.9,39.1,0.00,Snow,Light Snow,340,2013-03-25 19:11:00
11:18 AM,26.6,15.8,64,29.32,1.5,NNW,21.9,32.2,0.00,Snow,Light Snow,340,2013-03-25 19:18:00
11:32 AM,24.8,17.6,74,29.32,1.0,NNW,20.7,29.9,0.00,Snow,Light Snow,340,2013-03-25 19:32:00
11:44 AM,24.8,15.8,69,29.32,1.2,NNW,23.0,32.2,0.00,Snow,Light Snow,330,2013-03-25 19:44:00
11:53 AM,24.1,17.1,75,29.32,1.0,NNW,18.4,31.1,0.00,Snow,Light Snow,340,2013-03-25 19:53:00
12:05 PM,24.8,15.8,69,29.33,1.5,North,20.7,32.2,0.00,Snow,Light Snow,350,2013-03-25 20:05:00
12:09 PM,24.8,15.8,69,29.33,2.0,North,20.7,31.1,0.00,Snow,Light Snow,350,2013-03-25 20:09:00
12:40 PM,24.8,15.8,69,29.34,1.5,NNW,20.7,34.5,0.00,Snow,Light Snow,330,2013-03-25 20:40:00
12:53 PM,25.0,12.9,60,29.34,2.5,NW,16.1,33.4,0.00,Snow,Light Snow,320,2013-03-25 20:53:00
1:09 PM,24.8,12.2,59,29.34,1.8,NNW,24.2,39.1,0.00,,Overcast,340,2013-03-25 21:09:00
1:22 PM,24.8,12.2,59,29.34,3.0,NNW,21.9,34.5,0.00,,Overcast,340,2013-03-25 21:22:00
1:53 PM,25.0,12.0,58,29.35,4.0,NW,19.6,33.4,0.00,,Overcast,320,2013-03-25 21:53:00
2:36 PM,24.8,10.4,54,29.36,2.5,NW,23.0,38.0,0.00,Snow,Light Snow,320,2013-03-25 22:36:00
2:53 PM,24.1,10.9,57,29.37,2.5,NW,25.3,40.3,0.00,Snow,Light Snow,320,2013-03-25 22:53:00
3:32 PM,24.8,10.4,54,29.38,4.0,NNW,26.5,38.0,0.00,Snow,Light Snow,330,2013-03-25 23:32:00
3:53 PM,24.1,10.0,55,29.38,10.0,NW,16.1,27.6,0.00,,Overcast,320,2013-03-25 23:53:00
4:53 PM,24.1,9.0,53,29.41,10.0,NW,18.4,31.1,N/A,,Overcast,320,2013-03-26 00:53:00
5:53 PM,21.9,8.1,55,29.42,10.0,NW,15.0,27.6,N/A,,Overcast,320,2013-03-26 01:53:00
6:53 PM,21.0,7.0,55,29.44,10.0,NW,19.6,34.5,N/A,,Overcast,320,2013-03-26 02:53:00
7:53 PM,19.9,6.1,55,29.47,10.0,NNW,18.4,35.7,0.00,,Overcast,340,2013-03-26 03:53:00
8:53 PM,19.0,5.0,54,29.49,10.0,NNW,23.0,36.8,N/A,,Mostly Cloudy,330,2013-03-26 04:53:00
9:53 PM,19.0,5.0,54,29.52,10.0,NW,21.9,34.5,N/A,,Overcast,320,2013-03-26 05:53:00
10:53 PM,18.0,6.1,60,29.56,9.0,NW,28.8,39.1,N/A,,Overcast,320,2013-03-26 06:53:00
11:53 PM,17.1,3.9,56,29.61,10.0,NW,21.9,32.2,N/A,,Overcast,320,2013-03-26 07:53:00